Regional Weather Roundup
Issued by NWS

Home | Current Version | Previous Version | Text Only | Print | Product List | Glossary On
Versions: 1 2 3 4 5 6 7 8 9 10 11 12 13 14 15 16 17 18 19 20 21 22 23 24 25 26 27 28 29 30 31 32 33 34 35 36 37 38 39 40 41 42 43 44 45 46 47 48 49 50
000
ASUS44 KFWD 180901
RWRTX
NORTH TEXAS HOURLY WEATHER ROUNDUP
NATIONAL WEATHER SERVICE FORT WORTH TX
400 AM CDT SAT APR 18 2015

NOTE: "FAIR" INDICATES FEW OR NO CLOUDS BELOW 12,000 FEET WITH NO
SIGNIFICANT WEATHER AND/OR OBSTRUCTIONS TO VISIBILITY.

TXZ118-119-181000-
DALLAS/FORT WORTH METROPLEX

CITY           SKY/WX    TMP DP  RH WIND       PRES   REMARKS
DFW AIRPORT    MOCLDY    61  61 100 N5        29.90F
DALLAS LOVE    MOCLDY    63  61  93 NE6       29.89F
FTW MEACHAM    PTCLDY    63  61  93 NE7       29.90F
DAL-EXECUTIVE  MOCLDY    63  61  93 E3        29.90F
FTW-ALLIANCE   MOCLDY    60  60 100 NE6       29.90F
FTW-NAS-JRB    PTCLDY    64  62  93 N3        29.95F
ARLINGTON      PTCLDY    63  59  87 N5        29.90F
GRAND PRAIRIE  PTCLDY    62  62 100 N5        29.92F
MESQUITE       MOCLDY    62  62  98 CALM      29.91S
LANCASTER      MOCLDY    62  60  94 CALM      29.92S
$$

TXZ091>094-102>105-117-120-121-131>134-181000-
NORTH CENTRAL TEXAS

CITY           SKY/WX    TMP DP  RH WIND       PRES   REMARKS
SHRMAN/DENISON CLOUDY    63  62  97 SW6       29.93F
BRIDGEPORT     CLOUDY    59  59 100 CALM      29.95S FOG
DECATUR        MOCLDY    60  60 100 E3        29.93F
DENTON         MOCLDY    61  61 100 CALM      29.91F
MCKINNEY       CLOUDY    61  60  97 NW7       29.92F
ROCKWALL       CLOUDY    62  62  99 E3        29.90F
TERRELL        CLOUDY    64  62  93 NE3       29.90F
WAXAHACHIE     CLOUDY    61  61 100 CALM      29.92S
GRANBURY         N/A     64  62  94 CALM      29.92S FOG
$$

TXZ083>090-098>101-113>116-127>130-139>142-154-155-181000-
WESTERN NORTH TEXAS

CITY           SKY/WX    TMP DP  RH WIND       PRES   REMARKS
WICHITA FALLS  PTCLDY    57  56  96 E3        29.92F
WF-KICKAPOO    PTCLDY    60  58  94 E5        29.93F
ABILENE        CLOUDY    62  60  93 S9        29.93F
ABILENE-DYESS  CLOUDY    61  60  94 SE7       29.92S
BRECKENRIDGE   PTCLDY    59  58  97 S6        29.91F
MINERAL WELLS  CLOUDY    60  59  96 W3        29.92R FOG
STEPHENVILLE   CLEAR     61  59  93 CALM      29.94S
COMANCHE       CLOUDY    61  61 100 CALM      29.92F FOG
BRADY          CLEAR     54  52  94 CALM      29.90F
$$

TXZ143>147-156>162-174-175-181000-
CENTRAL TEXAS

CITY           SKY/WX    TMP DP  RH WIND       PRES   REMARKS
WACO           MOCLDY    63  62  97 CALM      29.89F
WACO-MCGREGOR  MOCLDY    64  57  77 CALM      29.90F
HILLSBORO      MOCLDY    64  61  91 NE5       29.90S
CORSICANA      MOCLDY    65  63  93 NE3       29.91F
MEXIA          MOCLDY    64  63  94 NE3       29.89F
HEARNE         CLOUDY    67  66  98 NW3       29.89F
TEMPLE         MOCLDY    61  57  88 CALM      29.88F
KILLEEN        PTCLDY    61  60  99 W1        29.87F FOG
KILLEEN-SKYLRK MOCLDY    63  57  82 CALM      29.86F
FORT HOOD      MOCLDY    62  61  97 N2        29.87F
HAMILTON       FOG       61  61 100 SE5       29.91F VSB 1/4
$$

TXZ095>097-106>112-122>126-135>138-148>153-164>167-181000-
EAST TEXAS

CITY           SKY/WX    TMP DP  RH WIND       PRES   REMARKS
PARIS          CLOUDY    64  57  77 MISG      29.94F
SULPHUR SPRNGS   N/A     64  63  96 NE3       29.93F
GILMER         CLOUDY    64  63  97 N6        29.91S
TYLER          CLOUDY    65  62  90 N6        29.88F
LONGVIEW       LGT RAIN  69  67  93 NE5       29.88F FOG
ATHENS         CLOUDY    63  63 100 N5        29.89F
PALESTINE      CLOUDY    65  64  95 CALM      29.91R
JACKSONVILLE   DRIZZLE   68  66  95 E3        29.89S
NACOGDOCHES    CLOUDY    68  66  94 CALM      29.88F
LUFKIN         CLOUDY    71  67  87 CALM      29.87F
$$

SUPPLEMENTAL OBSERVATIONS (CENTRAL)

CITY           SKY/WX    TMP DP  RH WIND       PRES   REMARKS
$$

SUPPLEMENTAL OBSERVATIONS (WEST)

CITY           SKY/WX    TMP DP  RH WIND       PRES   REMARKS
$$

SUPPLEMENTAL OBSERVATIONS (EAST)

CITY           SKY/WX    TMP DP  RH WIND       PRES   REMARKS
$$

SUPPLEMENTAL OBSERVATIONS ARE A COLLECTION OF AUTOMATED INSTRUMENTS
THAT ARE MAINTAINED BY A VARIETY OF FEDERAL AND STATE AGENCIES.
CERTAIN ELEMENTS...SUCH AS HUMIDITY VALUES AND SUSTAINED WIND
SPEEDS...MAY BE APPROXIMATED.



USA.gov is the U.S. government's official web portal to all federal, state and local government web resources and services.